Regional Weather Roundup
Issued by NWS

Home | Current Version | Previous Version | Text Only | Print | Product List | Glossary Off
Versions: 1 2 3 4 5 6 7 8 9 10 11 12 13 14 15 16 17 18 19 20 21 22 23 24 25 26 27 28 29 30 31 32 33 34 35 36 37 38 39 40 41 42 43 44 45 46 47 48 49 50

308
ASUS43 KFSD 232010
RWRSD

WEATHER ROUNDUP FOR SOUTH DAKOTA
NATIONAL WEATHER SERVICE SIOUX FALLS SD
300 PM CDT SAT SEP 23 2017

NOTE: "FAIR" INDICATES FEW OR NO CLOUDS BELOW 12,000 FEET WITH NO
SIGNIFICANT WEATHER AND/OR OBSTRUCTIONS TO VISIBILITY.


SDZ001>005-009-010-012>017-232100-
NORTHWEST AND NORTH CENTRAL SOUTH DAKOTA

CITY           SKY/WX    TMP DP  RH WIND       PRES   REMARKS
BUFFALO          N/A     46  43  89 NE14      30.00F
FAITH            N/A     49  47  93 NE16      30.04F
MOBRIDGE       CLOUDY    56  47  71 NE12      30.02S
$$

SDZ012>016-024>037-041>051-057-063-072>074-232100-
SOUTHWEST AND SOUTH CENTRAL SOUTH DAKOTA

CITY           SKY/WX    TMP DP  RH WIND       PRES   REMARKS
RAPID CTY ARPT LGT RAIN  46  45  93 N12       30.03F FOG
PIERRE         CLOUDY    51  49  92 NE14      29.99F
CUSTER         CLOUDY    41  39  93 NE7       30.02S FOG
ELLSWORTH AFB  LGT RAIN  46  46 100 N9        30.03
PHILIP         LGT RAIN  50  50 100 N12       30.00F FOG
PINE RIDGE     CLOUDY    47  45  93 NE9       29.99F
SPEARFISH      LGT RAIN  43  43 100 E7        30.05F
WINNER         LGT RAIN  54  52  93 N12       29.97F FOG
$$

SDZ004>011-016>023-039-040-232100-
NORTHEAST SOUTH DAKOTA

CITY           SKY/WX    TMP DP  RH WIND       PRES   REMARKS
ABERDEEN       CLOUDY    53  51  93 NE15      30.01F
WATERTOWN      CLOUDY    55  55 100 N12       29.97R
BROOKINGS      TSTM      61  59  94 E13       29.93S FOG
SISSETON         N/A     55  53  93 N14       29.99F
$$

SDZ017-020-022-023-036>040-048>070-232100-
SOUTHEAST SOUTH DAKOTA

CITY           SKY/WX    TMP DP  RH WIND       PRES   REMARKS
SIOUX FALLS    CLOUDY    75  69  81 CALM      29.93F
HURON          LGT RAIN  55  54  96 N9        29.98R
CHAMBERLAIN    DRIZZLE   55  55 100 N5        29.98F
MITCHELL       LGT RAIN  58  57  97 N5        29.95F
YANKTON        CLOUDY    72  63  73 N8        29.92F
$$

ABBREVIATIONS USED IN REMARKS
   TC - TEMPERATURE IN CELSIUS
  WCI - WIND CHILL INDEX
   HX - HEAT INDEX
  VSB - VISIBILITY





USA.gov is the U.S. government's official web portal to all federal, state and local government web resources and services.